Regional Weather Roundup
Issued by NWS

Home | Current Version | Previous Version | Text Only | Print | Product List | Glossary Off
Versions: 1 2 3 4 5 6 7 8 9 10 11 12 13 14 15 16 17 18 19 20 21 22 23 24 25 26 27 28 29 30 31 32 33 34 35 36 37 38 39 40 41 42 43 44 45 46 47 48 49 50

000
ASUS43 KMKX 170300
RWRWI

WISCONSIN REGIONAL WEATHER ROUNDUP
NATIONAL WEATHER SERVICE MILWAUKEE/SULLIVAN WI
1000 PM CDT WED AUG 16 2017

NOTE: "FAIR" INDICATES FEW OR NO CLOUDS BELOW 12,000 FEET WITH NO
SIGNIFICANT WEATHER AND/OR OBSTRUCTIONS TO VISIBILITY.

WIZ001-002-006>008-014>016-023>028-170400-
NORTHWEST WISCONSIN

CITY           SKY/WX    TMP DP  RH WIND       PRES   REMARKS
SUPERIOR ARPT    N/A     63  60  92 NE13G18   29.83F
ASHLAND        CLOUDY    65  61  87 NE6       29.83F
HAYWARD        CLOUDY    71  61  70 E10       29.80F
SIREN          HVY RAIN  69  66  89 E5        29.76S
CUMBERLAND     RAIN      66  63  88 E10       29.75F
RICE LAKE      LGT RAIN  68  65  90 E14       29.76F
CHETEK         LGT RAIN  69  66  90 E12       29.76F
LADYSMITH      MOCLDY    70  62  76 E12       29.81F
EAU CLAIRE     HVY RAIN  69  67  93 E20G30    29.71F FOG
MENOMONIE      CLOUDY    68  68  99 E17G24    29.72F
NEW RICHMOND   HVY RAIN  68  67  94 E17       29.71S
OSCEOLA        RAIN      69  69 100 E17G26    29.71F
$$

WIZ003>005-009-010-017-018-170400-
NORTH CENTRAL WISCONSIN

CITY           SKY/WX    TMP DP  RH WIND       PRES   REMARKS
MANITOWISH WTR CLOUDY    66  60  79 SE10      29.89S
ARBOR VITAE    CLOUDY    67  58  72 SE12      29.89F
WOODRUFF       CLOUDY    67  58  72 SE12      29.89F
RHINELANDER    CLOUDY    65  60  84 E14       29.90F
EAGLE RIVER    CLOUDY    65  54  68 SE7       29.91F
LAND O LAKES   CLOUDY    65  56  72 SE7       29.93S
PHILLIPS       CLOUDY    67  60  79 E12       29.85S
TOMAHAWK         N/A     66  58  77 E3        29.89F
MEDFORD        CLOUDY    67  62  84 E10G17    29.84F
MERRILL        CLOUDY    66  63  88 E7        29.87F
$$

WIZ029-030-035-036-043>047-170400-
CENTRAL WISCONSIN

CITY           SKY/WX    TMP DP  RH WIND       PRES   REMARKS
WAUSAU         LGT RAIN  67  62  84 E13       29.84F
MOSINEE        DRIZZLE   66  64  94 E12       29.86F
MARSHFIELD     LGT RAIN  68  63  84 SE13      29.83S
STEVENS POINT  CLOUDY    67  64  91 E15G21    29.86F
WAUPACA        CLOUDY    70  62  76 E7        29.87F
WAUTOMA        LGT RAIN  67  65  93 E7        29.84F
WISC RAPIDS    LGT RAIN  69  65  86 SE12      29.84F
CAMP DOUGLAS   CLOUDY    70  70 100 E13G21    29.78F
$$

WIZ011>013-019>022-031-037>040-048>050-170400-
NORTHEAST WISCONSIN

CITY           SKY/WX    TMP DP  RH WIND       PRES   REMARKS
ANTIGO         PTCLDY    64  61  89 E13G21    29.91F
SHAWANO        CLOUDY    69  64  83 E8        29.88F
OCONTO         CLOUDY    67  63  86 E5        29.89F
STURGEON BAY   CLOUDY    67  64  90 E7        29.91F
GREEN BAY      PTCLDY    68  64  87 E6        29.88F
MANITOWOC      NOT AVBL
APPLETON       LGT RAIN  68  61  77 E6        29.86F
CLINTONVILLE   LGT RAIN  66  61  82 E3        29.87F
OSHKOSH        LGT RAIN  68  63  84 SE7       29.86F
$$

WIZ032>034-041-042-053>061-170400-
SOUTHWEST WISCONSIN

CITY           SKY/WX    TMP DP  RH WIND       PRES   REMARKS
LA CROSSE      LGT RAIN  77  72  84 SE13      29.70F
SPARTA         CLOUDY    70  69  96 SE9       29.75F
VIROQUA        CLOUDY    72  72 100 SE10      29.76F
BOSCOBEL       CLOUDY    75  72  90 SE3       29.74F
PRAIRIE DU CHI CLOUDY    74  71  91 SE7       29.73F
PLATTEVILLE    PTCLDY    73  73 100 SE8       29.78F
$$

WIZ056-057-062-063-064-067-068-170400-
SOUTH CENTRAL WISCONSIN

CITY           SKY/WX    TMP DP  RH WIND       PRES   REMARKS
REEDSBURG      RAIN      70  70 100 SE5       29.79F
BARABOO/DELLS  HVY RAIN  70  68  93 E9        29.80F
LONE ROCK      NOT AVBL
MINERAL POINT  CLOUDY    73  73 100 SE7       29.79F
MADISON        HVY RAIN  71  70  96 SE12      29.81F FOG
MIDDLETON      CLOUDY    73  73 100 SE12      29.81F
WATERTOWN      LGT RAIN  69  69 100 SE6       29.84F
MONROE         CLOUDY    72  72 100 S10       29.80F
JANESVILLE     CLOUDY    73  73 100 SE13      29.80F
$$

WIZ051-052-058>065-066-070>072-170400-
SOUTHEAST WISCONSIN

CITY           SKY/WX    TMP DP  RH WIND       PRES   REMARKS
MILWAUKEE      CLOUDY    73  71  93 SE9       29.86F
WAUKESHA       NOT AVBL
MILWAUKEE/TIMM LGT RAIN  70  66  88 E5        29.87F
RACINE         LGT RAIN  73  72  96 SE8       29.87F
KENOSHA        CLOUDY    74  71  91 SE7       29.86F
FOND DU LAC    RAIN      68  63  84 SE7       29.87F
SHEBOYGAN      CLOUDY    68  68 100 E3        29.88F
WEST BEND      RAIN      66  66 100 NE3       29.88F
JUNEAU         CLOUDY    67  66  96 E7        29.86F
$$

LSZ147-162-170400-
LAKE SUPERIOR

STATION/POSITION TIME  TEMP    WIND        PRES    WAVE
                       AIR SEA DIR/SP/G            HT/PER
                 (UTC) (F)     (DEG/KT/KT) (MB)    (FT/S)
W MID LAKE BUOY  0150   62 60   60/ 14/ 16 1012.0S   2/ 4
DEVILS ISLAND    0200   63      70/ 21/ 23 1010.7F
SAXON HARBOR     0230   65     210/  1/  2 1009.8F
$$

LMZ867-665-643>646-170400-
LAKE MICHIGAN

STATION/POSITION TIME  TEMP    WIND        PRES    WAVE
                       AIR SEA DIR/SP/G            HT/PER
                 (UTC) (F)     (DEG/KT/KT) (MB)    (FT/S)
S GREEN BAY BUOY 0230   68 72   80/ 12/ 14 1012.4F
N MID LAKE BUOY  0150   69 68   80/  8/ 10 1013.9F   1
NORTHPORT PIER   0240   68      CALM  /  4 1013.2F
KEWAUNEE LAKESHO 0230   68      50/  4/  7 1011.7F
SHEBOYGAN LAKESH 0200   70      30/  7/  8 1011.6F
PORT WASHINGTON  0230   71      50/  5/  6 1012.2F
ATWATER BUOY     0109   71 72   90/  2/  4 1012.3F
MILWAUKEE LAKESH 0230   72      90/  7/  7   N/A
S MID LAKE BUOY  0150   75 73   90/  8/ 10 1011.9R   1
KENOSHA   LAKESH 0200   73     120/  7/  7 1011.5
$$

TC  - TEMPERATURE IN CELSIUS
VSB - VISIBILITY IN STATUTE MILES
WCI - WIND CHILL INDEX
HX  - HEAT INDEX





USA.gov is the U.S. government's official web portal to all federal, state and local government web resources and services.